QPF
0.07 0.10 0.10 0.09 0.08 0.09 0.09 0.06 0.06 0.06 0.05 0.06 0.05 0.05 0.06 0.06 0.08 0.11 0.13 0.15 0.16 0.15 0.14 0.11 0.10 0.11 0.10 0.09 0.08 0.07 0.07 0.06 0.07 0.07 0.06 0.06 0.06 0.06 0.05 0.05 0.07 0.06 0.05
0.11 0.10 0.13 0.12 0.09 0.09 0.09 0.08 0.06 0.06 0.06 0.05 0.04 0.03 0.03 0.03 0.04 0.06 0.08 0.10 0.10 0.10 0.09 0.11 0.10 0.10 0.10 0.10 0.09 0.09 0.08 0.08 0.07 0.06 0.06 0.05 0.04 0.04 0.03 0.04 0.04 0.05 0.05
0.12 0.11 0.13 0.13 0.12 0.09 0.09 0.08 0.06 0.05 0.05 0.04 0.03 0.02 0.01 0.01 0.02 0.02 0.03 0.05 0.04 0.05 0.07 0.08 0.09 0.09 0.09 0.10 0.11 0.11 0.11 0.10 0.09 0.09 0.08 0.06 0.05 0.04 0.03 0.02 0.03 0.03 0.04
0.10 0.10 0.12 0.11 0.12 0.11 0.10 0.08 0.06 0.04 0.04 0.04 0.04 0.04 0.02 0.03 0.01 0.01 0.02 0.02 0.02 0.03 0.04 0.05 0.06 0.06 0.06 0.06 0.07 0.08 0.09 0.10 0.09 0.09 0.07 0.07 0.06 0.06 0.05 0.03 0.02 0.03 0.04
0.11 0.12 0.13 0.13 0.13 0.13 0.13 0.10 0.07 0.05 0.04 0.03 0.03 0.03 0.02 0.02 0.02 0.02 0.01 0.02 0.02 0.02 0.03 0.04 0.04 0.05 0.05 0.05 0.05 0.05 0.06 0.07 0.07 0.07 0.06 0.06 0.06 0.05 0.05 0.05 0.04 0.03 0.02
0.12 0.13 0.16 0.17 0.15 0.15 0.11 0.09 0.06 0.05 0.03 0.02 0.03 0.03 0.02 0.02 0.03 0.02 0.01 0.01 0.02 0.03 0.03 0.02 0.02 0.02 0.03 0.03 0.03 0.04 0.05 0.06 0.06 0.05 0.05 0.05 0.05 0.05 0.05 0.04 0.04 0.04 0.04
0.11 0.14 0.15 0.15 0.14 0.12 0.11 0.07 0.05 0.03 0.02 0.02 0.03 0.03 0.03 0.03 0.02 0.02 0.02 0.01 0.02 0.03 0.03 0.02 0.02 0.02 0.02 0.02 0.02 0.02 0.03 0.04 0.05 0.05 0.05 0.04 0.04 0.03 0.03 0.03 0.03 0.02 0.03
0.09 0.14 0.16 0.16 0.15 0.15 0.11 0.08 0.06 0.04 0.03 0.02 0.02 0.01 0.01 0.02 0.02 0.01 0.01 0.02 0.02 0.03 0.03 0.03 0.03 0.03 0.03 0.03 0.02 0.01 0.01 0.02 0.02 0.03 0.03 0.02 0.02 0.02 0.02 0.02 0.03 0.03 0.02
0.11 0.15 0.18 0.18 0.14 0.13 0.12 0.09 0.06 0.04 0.03 0.02 0.02 0.01 0.01 0.01 0.01 0.01 0.01 0.01 0.01 0.01 0.02 0.02 0.03 0.04 0.05 0.04 0.03 0.02 0.01 0.01 0.01 0.01 0.02 0.02 0.02 0.02 0.02 0.02 0.02 0.03 0.03
0.11 0.14 0.15 0.16 0.14 0.10 0.08 0.07 0.05 0.03 0.02 0.02 0.01 0.01 0.02 0.02 0.02 0.01 0.01 0.01 0.00 0.01 0.02 0.02 0.02 0.03 0.04 0.05 0.05 0.04 0.03 0.02 0.02 0.01 0.01 0.01 0.01 0.01 0.01 0.01 0.02 0.02 0.03
0.07 0.09 0.11 0.12 0.10 0.09 0.08 0.08 0.07 0.05 0.04 0.03 0.02 0.02 0.02 0.02 0.02 0.01 0.01 0.01 0.00 0.00 0.00 0.01 0.01 0.01 0.02 0.02 0.03 0.03 0.04 0.03 0.03 0.02 0.01 0.01 0.01 0.01 0.01 0.01 0.01 0.01 0.02
0.05 0.07 0.09 0.09 0.07 0.06 0.06 0.06 0.06 0.05 0.05 0.04 0.03 0.03 0.02 0.02 0.01 0.01 0.01 0.00 0.00 0.00 0.00 0.00 0.01 0.01 0.01 0.01 0.01 0.01 0.01 0.02 0.02 0.03 0.02 0.01 0.01 0.01 0.01 0.01 0.01 0.01 0.01
0.05 0.06 0.05 0.05 0.05 0.05 0.06 0.06 0.06 0.05 0.05 0.05 0.05 0.04 0.03 0.03 0.02 0.02 0.01 0.00 0.00 0.00 0.00 0.00 0.01 0.00 0.01 0.01 0.00 0.00 0.00 0.00 0.00 0.01 0.01 0.00 0.00 0.01 0.01 0.01 0.01 0.01 0.01
0.04 0.04 0.04 0.04 0.05 0.06 0.06 0.06 0.07 0.08 0.07 0.05 0.03 0.03 0.03 0.03 0.03 0.02 0.01 0.01 0.00 0.00 0.00 0.00 0.00 0.00 0.01 0.01 0.00 0.00 0.00 0.00 0.00 0.00 0.00 0.00 0.00 0.00 0.00 0.01 0.01 0.01 0.01
0.05 0.04 0.03 0.04 0.04 0.04 0.04 0.04 0.05 0.07 0.09 0.09 0.06 0.04 0.03 0.02 0.02 0.02 0.01 0.01 0.01 0.00 0.00 0.00 0.00 0.00 0.01 0.01 0.00 0.00 0.00 0.00 0.00 0.00 0.00 0.01 0.01 0.01 0.01 0.01 0.01 0.01 0.01
0.06 0.04 0.04 0.04 0.04 0.03 0.02 0.02 0.03 0.05 0.08 0.10 0.09 0.08 0.05 0.04 0.03 0.02 0.01 0.01 0.01 0.00 0.00 0.00 0.00 0.00 0.00 0.00 0.00 0.00 0.00 0.00 0.00 0.00 0.00 0.01 0.01 0.02 0.02 0.02 0.03 0.03 0.02
0.04 0.04 0.04 0.04 0.04 0.03 0.02 0.02 0.03 0.03 0.04 0.05 0.05 0.05 0.04 0.03 0.03 0.03 0.02 0.01 0.01 0.01 0.00 0.00 0.00 0.00 0.00 0.00 0.00 0.00 0.00 0.00 0.00 0.00 0.00 0.00 0.01 0.01 0.02 0.03 0.04 0.05 0.04
0.03 0.04 0.04 0.04 0.03 0.02 0.02 0.03 0.04 0.04 0.04 0.05 0.05 0.05 0.05 0.04 0.03 0.02 0.02 0.01 0.01 0.01 0.00 0.00 0.00 0.00 0.00 0.00 0.00 0.00 0.00 0.00 0.00 0.00 0.00 0.00 0.01 0.01 0.02 0.02 0.03 0.04 0.04
0.04 0.04 0.04 0.03 0.02 0.02 0.02 0.02 0.03 0.03 0.04 0.05 0.04 0.04 0.04 0.04 0.04 0.03 0.02 0.01 0.01 0.01 0.01 0.00 0.00 0.00 0.00 0.00 0.00 0.00 0.00 0.00 0.00 0.01 0.01 0.01 0.01 0.01 0.02 0.02 0.03 0.03 0.03
0.03 0.03 0.03 0.03 0.02 0.01 0.01 0.01 0.01 0.02 0.03 0.03 0.03 0.02 0.02 0.02 0.02 0.02 0.01 0.01 0.00 0.01 0.00 0.00 0.00 0.00 0.00 0.00 0.00 0.01 0.01 0.01 0.01 0.01 0.02 0.02 0.01 0.01 0.02 0.02 0.02 0.03 0.03
0.02 0.02 0.02 0.03 0.03 0.02 0.02 0.02 0.02 0.03 0.03 0.03 0.02 0.02 0.02 0.02 0.02 0.01 0.01 0.01 0.01 0.01 0.01 0.00 0.00 0.00 0.00 0.00 0.00 0.01 0.01 0.02 0.02 0.01 0.01 0.01 0.02 0.02 0.02 0.02 0.03 0.04 0.03
0.01 0.02 0.02 0.02 0.02 0.03 0.04 0.04 0.04 0.04 0.04 0.03 0.03 0.03 0.03 0.04 0.03 0.02 0.02 0.01 0.01 0.01 0.01 0.00 0.00 0.00 0.00 0.00 0.00 0.01 0.01 0.02 0.01 0.01 0.01 0.01 0.02 0.03 0.03 0.03 0.03 0.04 0.03
0.00 0.01 0.01 0.01 0.01 0.01 0.03 0.05 0.05 0.05 0.04 0.03 0.03 0.02 0.03 0.03 0.02 0.01 0.01 0.01 0.00 0.01 0.01 0.00 0.00 0.00 0.00 0.00 0.00 0.01 0.01 0.02 0.01 0.01 0.01 0.01 0.02 0.02 0.03 0.03 0.02 0.03 0.03
0.00 0.00 0.00 0.00 0.01 0.01 0.02 0.03 0.03 0.03 0.04 0.04 0.04 0.04 0.03 0.03 0.02 0.01 0.01 0.01 0.01 0.00 0.00 0.00 0.00 0.00 0.00 0.00 0.00 0.01 0.01 0.01 0.01 0.01 0.02 0.01 0.01 0.01 0.01 0.01 0.02 0.02 0.02
0.00 0.00 0.00 0.00 0.00 0.01 0.02 0.01 0.02 0.02 0.03 0.03 0.03 0.02 0.02 0.02 0.03 0.02 0.01 0.01 0.00 0.00 0.00 0.00 0.00 0.00 0.01 0.01 0.01 0.01 0.01 0.01 0.01 0.01 0.02 0.03 0.01 0.01 0.01 0.01 0.01 0.02 0.02
0.00 0.00 0.00 0.00 0.00 0.01 0.01 0.01 0.01 0.02 0.03 0.02 0.01 0.01 0.01 0.01 0.01 0.01 0.01 0.00 0.00 0.00 0.00 0.00 0.00 0.00 0.01 0.01 0.01 0.01 0.01 0.01 0.01 0.01 0.01 0.03 0.03 0.02 0.02 0.02 0.02 0.02 0.02
MSLP
1014.81 1014.80 1014.82 1014.87 1014.95 1015.07 1015.22 1015.41 1015.64 1015.88 1016.12 1016.36 1016.55 1016.71 1016.80 1016.84 1016.83 1016.79 1016.74 1016.69 1016.67 1016.68 1016.73 1016.84 1017.00 1017.21 1017.46 1017.74 1018.04 1018.33 1018.62 1018.89 1019.12 1019.32 1019.49 1019.63 1019.76 1019.90 1020.04 1020.21 1020.39 1020.59 1020.78
1014.68 1014.63 1014.64 1014.69 1014.79 1014.94 1015.14 1015.39 1015.67 1015.98 1016.28 1016.56 1016.79 1016.94 1017.02 1017.02 1016.96 1016.86 1016.74 1016.65 1016.59 1016.58 1016.63 1016.75 1016.91 1017.11 1017.34 1017.59 1017.85 1018.11 1018.37 1018.62 1018.87 1019.11 1019.35 1019.58 1019.82 1020.07 1020.33 1020.59 1020.84 1021.09 1021.30
1014.42 1014.34 1014.33 1014.39 1014.52 1014.72 1014.98 1015.30 1015.66 1016.04 1016.41 1016.74 1016.99 1017.15 1017.21 1017.17 1017.05 1016.89 1016.72 1016.58 1016.49 1016.46 1016.50 1016.60 1016.76 1016.95 1017.16 1017.39 1017.61 1017.84 1018.08 1018.33 1018.59 1018.87 1019.17 1019.49 1019.83 1020.17 1020.52 1020.86 1021.17 1021.45 1021.67
1014.11 1013.98 1013.96 1014.04 1014.20 1014.45 1014.77 1015.16 1015.60 1016.06 1016.49 1016.86 1017.14 1017.31 1017.34 1017.27 1017.10 1016.89 1016.67 1016.48 1016.35 1016.30 1016.33 1016.42 1016.57 1016.75 1016.95 1017.15 1017.36 1017.58 1017.81 1018.07 1018.35 1018.67 1019.03 1019.41 1019.81 1020.22 1020.63 1021.01 1021.36 1021.66 1021.88
1013.85 1013.68 1013.64 1013.72 1013.91 1014.20 1014.58 1015.03 1015.54 1016.06 1016.54 1016.95 1017.25 1017.41 1017.43 1017.33 1017.12 1016.86 1016.60 1016.37 1016.21 1016.14 1016.15 1016.23 1016.38 1016.55 1016.75 1016.96 1017.17 1017.39 1017.64 1017.91 1018.22 1018.57 1018.96 1019.37 1019.80 1020.24 1020.66 1021.05 1021.41 1021.70 1021.93
1013.75 1013.54 1013.47 1013.54 1013.73 1014.05 1014.46 1014.96 1015.51 1016.06 1016.58 1017.01 1017.32 1017.48 1017.49 1017.36 1017.12 1016.83 1016.54 1016.28 1016.10 1016.01 1016.01 1016.09 1016.23 1016.42 1016.63 1016.85 1017.08 1017.33 1017.60 1017.90 1018.23 1018.60 1018.99 1019.40 1019.82 1020.23 1020.62 1020.99 1021.32 1021.60 1021.82
1013.88 1013.63 1013.53 1013.57 1013.76 1014.07 1014.49 1014.99 1015.55 1016.12 1016.64 1017.08 1017.38 1017.54 1017.54 1017.39 1017.15 1016.84 1016.54 1016.27 1016.07 1015.97 1015.96 1016.05 1016.20 1016.39 1016.62 1016.88 1017.14 1017.43 1017.73 1018.05 1018.39 1018.75 1019.11 1019.48 1019.84 1020.19 1020.53 1020.84 1021.13 1021.39 1021.61
1014.29 1014.00 1013.87 1013.88 1014.03 1014.31 1014.71 1015.19 1015.73 1016.28 1016.78 1017.20 1017.50 1017.64 1017.63 1017.49 1017.24 1016.94 1016.63 1016.37 1016.18 1016.07 1016.07 1016.16 1016.31 1016.53 1016.78 1017.06 1017.36 1017.67 1017.99 1018.32 1018.65 1018.98 1019.30 1019.60 1019.88 1020.14 1020.38 1020.62 1020.86 1021.09 1021.32
1014.95 1014.66 1014.50 1014.47 1014.58 1014.81 1015.16 1015.59 1016.09 1016.59 1017.05 1017.43 1017.70 1017.83 1017.81 1017.67 1017.44 1017.15 1016.87 1016.62 1016.44 1016.35 1016.35 1016.44 1016.61 1016.83 1017.09 1017.38 1017.70 1018.02 1018.35 1018.67 1018.97 1019.25 1019.50 1019.71 1019.89 1020.05 1020.20 1020.36 1020.55 1020.76 1021.00
1015.85 1015.56 1015.39 1015.33 1015.39 1015.57 1015.85 1016.22 1016.64 1017.08 1017.48 1017.81 1018.03 1018.14 1018.11 1017.98 1017.76 1017.51 1017.25 1017.03 1016.88 1016.80 1016.81 1016.90 1017.06 1017.28 1017.53 1017.82 1018.12 1018.44 1018.75 1019.04 1019.30 1019.51 1019.68 1019.80 1019.89 1019.95 1020.01 1020.10 1020.24 1020.44 1020.70
1016.90 1016.65 1016.49 1016.41 1016.43 1016.56 1016.77 1017.06 1017.40 1017.75 1018.08 1018.34 1018.51 1018.58 1018.54 1018.40 1018.21 1017.98 1017.76 1017.58 1017.45 1017.40 1017.41 1017.50 1017.64 1017.83 1018.06 1018.32 1018.59 1018.87 1019.13 1019.38 1019.58 1019.73 1019.83 1019.86 1019.86 1019.84 1019.83 1019.87 1019.98 1020.17 1020.44
1018.02 1017.83 1017.70 1017.62 1017.62 1017.70 1017.85 1018.06 1018.32 1018.58 1018.82 1019.00 1019.10 1019.12 1019.05 1018.92 1018.73 1018.53 1018.35 1018.20 1018.11 1018.07 1018.09 1018.17 1018.29 1018.44 1018.62 1018.83 1019.04 1019.26 1019.47 1019.66 1019.80 1019.89 1019.92 1019.90 1019.84 1019.76 1019.70 1019.70 1019.78 1019.95 1020.23
1019.12 1019.02 1018.93 1018.87 1018.86 1018.90 1019.00 1019.15 1019.32 1019.49 1019.63 1019.73 1019.76 1019.72 1019.61 1019.46 1019.28 1019.10 1018.95 1018.84 1018.78 1018.76 1018.79 1018.85 1018.94 1019.05 1019.17 1019.31 1019.46 1019.61 1019.75 1019.87 1019.96 1020.00 1019.99 1019.93 1019.83 1019.72 1019.63 1019.60 1019.65 1019.81 1020.08
1020.15 1020.12 1020.09 1020.06 1020.05 1020.07 1020.13 1020.21 1020.31 1020.39 1020.45 1020.45 1020.40 1020.30 1020.15 1019.97 1019.79 1019.63 1019.51 1019.43 1019.40 1019.40 1019.44 1019.49 1019.55 1019.61 1019.67 1019.74 1019.81 1019.89 1019.97 1020.03 1020.07 1020.08 1020.04 1019.96 1019.84 1019.72 1019.62 1019.57 1019.60 1019.74 1019.97
1021.02 1021.08 1021.09 1021.10 1021.09 1021.11 1021.13 1021.17 1021.20 1021.20 1021.17 1021.10 1020.97 1020.80 1020.60 1020.40 1020.22 1020.08 1019.98 1019.94 1019.94 1019.97 1020.01 1020.05 1020.09 1020.11 1020.11 1020.11 1020.11 1020.12 1020.13 1020.14 1020.14 1020.12 1020.07 1019.99 1019.88 1019.76 1019.65 1019.59 1019.60 1019.70 1019.89
1021.71 1021.82 1021.88 1021.91 1021.92 1021.93 1021.93 1021.93 1021.90 1021.85 1021.75 1021.60 1021.41 1021.18 1020.95 1020.73 1020.55 1020.42 1020.36 1020.35 1020.38 1020.44 1020.49 1020.54 1020.55 1020.53 1020.49 1020.43 1020.36 1020.30 1020.26 1020.22 1020.19 1020.16 1020.10 1020.02 1019.92 1019.81 1019.71 1019.64 1019.62 1019.68 1019.83
1022.19 1022.34 1022.43 1022.47 1022.49 1022.49 1022.48 1022.44 1022.38 1022.28 1022.13 1021.93 1021.70 1021.44 1021.18 1020.96 1020.79 1020.68 1020.65 1020.67 1020.74 1020.83 1020.90 1020.95 1020.95 1020.90 1020.82 1020.70 1020.58 1020.47 1020.37 1020.29 1020.23 1020.18 1020.12 1020.05 1019.96 1019.86 1019.76 1019.68 1019.64 1019.67 1019.76
1022.47 1022.63 1022.72 1022.77 1022.79 1022.78 1022.76 1022.71 1022.62 1022.50 1022.32 1022.11 1021.85 1021.59 1021.33 1021.12 1020.97 1020.90 1020.90 1020.96 1021.06 1021.17 1021.26 1021.31 1021.30 1021.23 1021.11 1020.95 1020.78 1020.61 1020.47 1020.35 1020.26 1020.19 1020.12 1020.05 1019.97 1019.88 1019.78 1019.70 1019.65 1019.64 1019.70
1022.57 1022.72 1022.80 1022.84 1022.85 1022.84 1022.81 1022.76 1022.67 1022.55 1022.37 1022.16 1021.92 1021.68 1021.45 1021.27 1021.15 1021.11 1021.14 1021.24 1021.37 1021.50 1021.60 1021.65 1021.63 1021.54 1021.39 1021.20 1020.98 1020.77 1020.58 1020.42 1020.30 1020.20 1020.12 1020.04 1019.96 1019.87 1019.78 1019.70 1019.64 1019.62 1019.66
1022.53 1022.66 1022.72 1022.75 1022.75 1022.73 1022.71 1022.66 1022.59 1022.48 1022.34 1022.16 1021.96 1021.76 1021.58 1021.44 1021.37 1021.36 1021.43 1021.54 1021.69 1021.83 1021.93 1021.98 1021.95 1021.84 1021.66 1021.44 1021.19 1020.94 1020.71 1020.51 1020.35 1020.23 1020.13 1020.04 1019.95 1019.86 1019.78 1019.70 1019.64 1019.62 1019.65
1022.41 1022.51 1022.55 1022.56 1022.55 1022.53 1022.51 1022.48 1022.43 1022.37 1022.27 1022.15 1022.01 1021.87 1021.75 1021.66 1021.63 1021.67 1021.75 1021.88 1022.03 1022.16 1022.26 1022.29 1022.24 1022.12 1021.93 1021.68 1021.41 1021.13 1020.87 1020.64 1020.44 1020.29 1020.16 1020.06 1019.96 1019.87 1019.79 1019.72 1019.67 1019.66 1019.69
1022.26 1022.32 1022.33 1022.32 1022.30 1022.28 1022.27 1022.27 1022.26 1022.25 1022.21 1022.16 1022.09 1022.02 1021.97 1021.94 1021.95 1022.00 1022.10 1022.22 1022.36 1022.47 1022.55 1022.56 1022.50 1022.37 1022.16 1021.91 1021.62 1021.33 1021.05 1020.79 1020.58 1020.40 1020.25 1020.12 1020.02 1019.93 1019.85 1019.79 1019.75 1019.74 1019.77
1022.09 1022.12 1022.11 1022.08 1022.05 1022.04 1022.04 1022.07 1022.10 1022.14 1022.17 1022.19 1022.20 1022.20 1022.20 1022.22 1022.26 1022.33 1022.42 1022.53 1022.64 1022.73 1022.78 1022.77 1022.70 1022.56 1022.35 1022.10 1021.82 1021.53 1021.24 1020.98 1020.75 1020.55 1020.38 1020.25 1020.13 1020.03 1019.96 1019.91 1019.87 1019.87 1019.90
1021.94 1021.94 1021.91 1021.87 1021.83 1021.82 1021.84 1021.89 1021.96 1022.05 1022.14 1022.22 1022.30 1022.36 1022.41 1022.47 1022.53 1022.60 1022.68 1022.76 1022.84 1022.89 1022.91 1022.89 1022.81 1022.67 1022.48 1022.24 1021.98 1021.70 1021.43 1021.17 1020.94 1020.73 1020.56 1020.41 1020.28 1020.18 1020.11 1020.05 1020.02 1020.02 1020.04
1021.79 1021.77 1021.72 1021.67 1021.63 1021.61 1021.64 1021.71 1021.82 1021.95 1022.09 1022.22 1022.35 1022.46 1022.56 1022.63 1022.70 1022.76 1022.82 1022.87 1022.91 1022.93 1022.92 1022.88 1022.80 1022.67 1022.50 1022.30 1022.07 1021.83 1021.58 1021.34 1021.11 1020.91 1020.73 1020.57 1020.44 1020.34 1020.25 1020.20 1020.16 1020.15 1020.15
1021.63 1021.60 1021.54 1021.48 1021.43 1021.41 1021.45 1021.53 1021.65 1021.81 1021.98 1022.16 1022.32 1022.47 1022.58 1022.68 1022.74 1022.79 1022.82 1022.84 1022.84 1022.83 1022.80 1022.74 1022.66 1022.55 1022.42 1022.25 1022.06 1021.86 1021.65 1021.43 1021.23 1021.03 1020.85 1020.69 1020.55 1020.44 1020.35 1020.28 1020.23 1020.20 1020.18
Thickness
5706 5706 5704 5704 5703 5700 5698 5696 5694 5692 5691 5689 5686 5684 5681 5680 5679 5678 5677 5676 5675 5674 5673 5673 5673 5672 5672 5672 5672 5672 5672 5672 5672 5672 5674 5677 5679 5680 5681 5682 5683 5683 5683
5698 5698 5697 5696 5695 5693 5690 5687 5687 5686 5684 5682 5680 5678 5675 5673 5671 5670 5668 5667 5667 5666 5666 5665 5665 5665 5665 5665 5665 5665 5665 5665 5666 5666 5665 5666 5670 5673 5675 5676 5677 5677 5678
5694 5693 5691 5689 5687 5686 5684 5683 5680 5679 5678 5675 5674 5672 5669 5666 5663 5662 5660 5659 5658 5658 5657 5657 5656 5656 5657 5657 5658 5659 5659 5658 5659 5660 5660 5659 5660 5663 5667 5669 5670 5670 5671
5690 5689 5685 5682 5680 5679 5679 5676 5675 5673 5671 5668 5666 5664 5660 5657 5654 5652 5651 5650 5650 5649 5648 5648 5648 5648 5649 5650 5651 5652 5653 5653 5653 5654 5655 5656 5658 5657 5658 5661 5662 5664 5664
5686 5683 5680 5677 5675 5673 5672 5670 5668 5666 5663 5661 5659 5656 5653 5649 5646 5645 5644 5642 5642 5641 5641 5640 5640 5640 5641 5642 5643 5644 5646 5647 5647 5647 5648 5650 5651 5653 5652 5652 5654 5656 5657
5682 5678 5675 5672 5668 5666 5665 5663 5661 5658 5656 5654 5651 5649 5646 5642 5639 5637 5636 5634 5633 5633 5633 5632 5631 5632 5633 5634 5636 5637 5639 5640 5641 5641 5642 5643 5644 5645 5646 5647 5647 5648 5649
5676 5672 5668 5664 5661 5659 5657 5655 5653 5650 5647 5645 5643 5642 5639 5635 5632 5630 5628 5626 5625 5624 5624 5624 5624 5625 5626 5627 5628 5630 5631 5632 5633 5634 5635 5636 5638 5639 5640 5641 5641 5641 5642
5671 5666 5662 5659 5656 5653 5651 5648 5645 5642 5640 5638 5635 5633 5631 5628 5624 5622 5620 5618 5617 5616 5616 5616 5616 5617 5618 5619 5620 5622 5623 5624 5625 5627 5628 5629 5631 5632 5634 5635 5634 5634 5635
5663 5660 5656 5652 5649 5646 5643 5641 5638 5635 5633 5630 5627 5625 5623 5620 5616 5614 5612 5610 5609 5609 5608 5608 5608 5609 5609 5610 5611 5613 5614 5615 5617 5618 5620 5622 5623 5625 5627 5628 5629 5629 5630
5657 5653 5649 5646 5642 5639 5636 5633 5630 5627 5624 5621 5618 5616 5613 5611 5608 5606 5604 5602 5602 5601 5600 5600 5600 5600 5601 5601 5602 5604 5605 5607 5608 5610 5612 5614 5616 5617 5619 5621 5622 5623 5624
5650 5645 5641 5638 5635 5632 5628 5624 5621 5618 5615 5612 5609 5606 5604 5602 5599 5597 5595 5594 5593 5593 5592 5591 5591 5591 5592 5593 5594 5595 5596 5598 5600 5601 5603 5606 5608 5610 5611 5613 5615 5616 5617
5642 5638 5634 5630 5626 5622 5620 5616 5613 5609 5606 5603 5600 5597 5595 5592 5590 5588 5587 5586 5585 5584 5583 5583 5583 5583 5584 5585 5586 5586 5588 5589 5591 5593 5595 5597 5600 5602 5604 5605 5607 5608 5610
5635 5630 5626 5622 5618 5614 5611 5608 5605 5602 5598 5595 5592 5589 5586 5583 5581 5579 5578 5577 5576 5575 5575 5575 5574 5575 5575 5576 5577 5577 5579 5580 5582 5584 5586 5588 5590 5593 5595 5597 5599 5601 5602
5627 5622 5618 5614 5610 5607 5603 5600 5597 5594 5591 5587 5583 5580 5577 5575 5572 5571 5570 5569 5568 5567 5566 5566 5566 5566 5567 5567 5568 5569 5570 5572 5573 5575 5577 5580 5582 5584 5587 5589 5591 5593 5594
5619 5615 5610 5606 5602 5599 5596 5593 5589 5586 5583 5579 5576 5572 5570 5567 5565 5563 5561 5560 5559 5559 5558 5557 5557 5558 5558 5559 5560 5561 5562 5563 5564 5567 5569 5571 5574 5576 5578 5581 5583 5585 5587
5613 5608 5603 5599 5595 5591 5588 5585 5582 5578 5575 5572 5569 5566 5563 5560 5557 5555 5553 5553 5552 5550 5550 5549 5549 5550 5550 5551 5552 5553 5553 5554 5556 5558 5561 5564 5566 5568 5571 5573 5575 5578 5580
5607 5602 5598 5593 5588 5584 5581 5578 5575 5571 5568 5565 5562 5559 5556 5553 5550 5548 5546 5545 5544 5543 5542 5542 5542 5542 5543 5544 5545 5545 5546 5547 5548 5549 5552 5555 5558 5560 5563 5565 5568 5570 5572
5602 5597 5592 5587 5582 5579 5575 5572 5569 5565 5562 5559 5556 5553 5550 5547 5544 5542 5540 5538 5537 5535 5535 5535 5535 5535 5536 5537 5538 5539 5539 5540 5540 5542 5544 5546 5549 5551 5554 5557 5559 5562 5564
5597 5592 5587 5582 5577 5573 5570 5566 5563 5560 5557 5554 5551 5548 5545 5542 5538 5536 5534 5533 5531 5530 5528 5528 5529 5529 5529 5530 5531 5532 5532 5533 5533 5535 5537 5539 5541 5544 5546 5549 5551 5554 5556
5593 5587 5582 5577 5573 5569 5565 5562 5559 5556 5553 5550 5547 5544 5541 5537 5534 5532 5530 5528 5526 5525 5524 5523 5523 5523 5523 5524 5525 5526 5526 5527 5528 5529 5530 5532 5534 5536 5539 5541 5544 5547 5548
5589 5584 5579 5574 5570 5566 5562 5559 5555 5552 5549 5546 5544 5540 5537 5534 5531 5529 5526 5524 5522 5521 5520 5519 5518 5518 5519 5519 5520 5521 5521 5521 5522 5523 5525 5527 5529 5531 5533 5535 5537 5539 5542
5585 5580 5575 5571 5567 5563 5559 5556 5552 5549 5546 5543 5540 5537 5534 5532 5529 5526 5524 5522 5519 5517 5516 5515 5515 5515 5515 5515 5516 5517 5517 5517 5517 5518 5520 5522 5524 5527 5528 5530 5532 5535 5537
5582 5577 5573 5568 5564 5561 5558 5554 5551 5548 5545 5541 5537 5534 5532 5530 5527 5524 5522 5519 5517 5515 5514 5512 5512 5512 5512 5513 5513 5514 5514 5514 5514 5515 5516 5519 5521 5523 5525 5527 5529 5531 5533
5580 5575 5571 5567 5563 5560 5557 5553 5550 5547 5543 5539 5535 5532 5529 5527 5525 5522 5520 5518 5516 5514 5513 5512 5511 5511 5511 5511 5511 5511 5511 5512 5513 5513 5515 5517 5519 5521 5523 5525 5526 5528 5530
5578 5574 5570 5566 5563 5559 5556 5553 5550 5546 5542 5538 5534 5531 5528 5526 5523 5521 5519 5518 5516 5515 5513 5512 5511 5511 5512 5512 5511 5509 5510 5511 5511 5512 5514 5516 5518 5520 5521 5523 5525 5527 5529
5578 5573 5570 5566 5563 5559 5556 5553 5550 5546 5541 5537 5534 5530 5527 5525 5523 5520 5519 5519 5518 5518 5516 5515 5513 5513 5513 5513 5512 5512 5512 5512 5512 5513 5514 5515 5517 5519 5521 5523 5525 5528 5529